Flag for Germany Weather past 2 weeks in Neuwied, Rhineland-Palatinate, Germany

Now
43 °F

Scattered clouds.


Feels Like: 35 °F
Forecast: 35 / 46 °F
Wind: 16 mph from West

Location: Buechel

Current Time: Mar 2, 2015 at 1:57:15 PM

Latest Report: Mar 2, 2015 at 1:20 PM


Visibility: N/A

Pressure: 29.71 "Hg

Humidity: 53%

Dew point: 27 °F

Location of NeuwiedLocation

Historic Weather in Neuwied — Graph

°F

Neuwied temperature yesterday

Maximum temperature yesterday: 46 °F (at 1:20 PM)
Minimum temperature yesterday: 32 °F (at 4:20 AM)
Average temperature yesterday: 40 °F

Past Weeks' High & Low Weather Summary

 TemperatureHumidityPressure
High46 °F (Mar 1, 1:20 PM)100% (Feb 17, 9:20 AM)30.69 "Hg (Feb 17, 9:20 AM)
Low27 °F (Feb 19, 1:20 AM)56% (Feb 22, 1:20 PM)29.39 "Hg (Feb 21, 4:20 AM)
Average34 °F90%29.95 "Hg
* Reported Feb 15 12:20 PM — Mar 2 12:20 PM, Neuwied, Weather by CustomWeather, © 2015

Note: Actual official high and low records may vary slightly from our data, if they occured in-between our weather recording intervals... More about our weather records

Advertising

Neuwied weather history for previous 24 hours

 ConditionsComfort  
Time TempWeatherWind HumidityBarometerVisibility
12:20 PM
Mon, Mar 2
41 °FScattered clouds.12 mph61%29.71 "HgN/A
11:20 AM39 °FScattered clouds.14 mph65%29.71 "HgN/A
10:20 AM39 °FScattered clouds.16 mph65%29.68 "HgN/A
9:20 AM37 °FPartly sunny.17 mph75%29.65 "HgN/A
8:20 AM36 °FScattered clouds.12 mph87%29.62 "HgN/A
7:20 AM34 °FSprinkles. Broken clouds.12 mph100%29.59 "Hg5 mi
6:20 AM37 °FPassing clouds.9 mph81%29.56 "HgN/A
5:20 AM39 °FPassing clouds.15 mph70%29.56 "HgN/A
4:20 AM39 °FPassing clouds.16 mph75%29.53 "HgN/A
3:20 AM39 °FChilly.15 mph87%29.53 "HgN/A
2:20 AM43 °FQuite cool.15 mph87%29.50 "HgN/A
1:20 AM43 °FQuite cool.15 mph93%29.50 "Hg4 mi
12:20 AM43 °FQuite cool.14 mph87%29.53 "Hg2 mi
11:20 PM
Sun, Mar 1
43 °FQuite cool.14 mph87%29.56 "HgN/A
10:20 PM43 °FQuite cool.15 mph87%29.59 "HgN/A
9:20 PM43 °FQuite cool.13 mph81%29.62 "HgN/A
8:20 PM43 °FQuite cool.13 mph76%29.65 "HgN/A
7:20 PM43 °FQuite cool.13 mph71%29.65 "HgN/A
6:20 PM45 °FQuite cool.10 mph66%29.65 "HgN/A
5:20 PM46 °FCool.13 mph57%29.65 "HgN/A
4:20 PM46 °FCool.13 mph66%29.65 "HgN/A
3:20 PM46 °FCool.13 mph71%29.65 "HgN/A
2:20 PM46 °FCool.13 mph66%29.68 "HgN/A
1:20 PM46 °FCool.17 mph66%29.65 "HgN/A
Weather by CustomWeather, © 2015

See weather overviewHow to use our weather pages